This demonstration page uses our WeatherBlox Daily Observations layout. Learn more.

Left ArrowRight Arrow

Hourly Observations for December 20, 2021

Temp ( °F °C ) Dew Point ( °F °C ) Humidity (%) Winds ( mph kmh ) Pressure ( in mb ) Visibility ( mi km ) Precip ( " mm )
12:59 am 00:59 Mostly Clear 40 4.4 24 -4.4 53 53 NNE 22 35 30.27 1025 10 16 0.00 0.00
1:59 am 01:59 Mostly Clear 39 3.9 25 -3.9 57 57 NNE 21 33 30.27 1025 10 16 0.00 0.00
2:59 am 02:59 Partly Cloudy 38 3.3 26 -3.3 62 62 NE 17 28 30.29 1026 10 16 0.00 0.00
3:59 am 03:59 Partly Cloudy 37 2.8 23 -5 57 57 NE 12 19 30.30 1026 10 16 0.00 0.00
4:59 am 04:59 Partly Cloudy 36 2.2 25 -3.9 64 64 NE 15 24 30.30 1026 10 16 0.00 0.00
5:35 am 05:35 Mostly Cloudy 36 2.2 25 -3.9 64 64 NNE 14 22 30.31 1026 10 16 0.00 0.00
5:59 am 05:59 Mostly Cloudy 37 2.8 26 -3.3 65 65 NNE 10 17 30.31 1026 10 16 0.00 0.00
6:59 am 06:59 Mostly Cloudy 35 1.7 25 -3.9 67 67 NE 15 24 30.34 1027 10 16 0.00 0.00
7:35 am 07:35 Partly Cloudy 36 2.2 25 -3.9 64 64 NE 12 19 30.35 1028 10 16 0.00 0.00
7:59 am 07:59 Partly Cloudy 36 2.2 25 -3.9 64 64 NE 12 19 30.37 1028 10 16 0.00 0.00
8:59 am 08:59 Mostly Sunny 37 2.8 26 -3.3 65 65 NE 13 20 30.39 1029 10 16 0.00 0.00
9:59 am 09:59 Partly Cloudy 40 4.4 28 -2.2 63 63 NNE 10 17 30.41 1030 10 16 0.00 0.00
10:59 am 10:59 Sunny 42 5.6 28 -2.2 58 58 N 10 17 30.41 1030 10 16 0.00 0.00
11:59 am 11:59 Partly Cloudy 41 5 29 -1.7 62 62 N 12 19 30.38 1029 10 16 0.00 0.00
12:59 pm 12:59 Partly Cloudy 41 5 30 -1.1 65 65 NNE 10 17 30.35 1028 10 16 0.00 0.00
1:59 pm 13:59 Partly Cloudy 42 5.6 35 1.7 76 76 N 9 15 30.32 1027 10 16 0.00 0.00
2:06 pm 14:06 Mostly Cloudy 42 5.6 35 1.7 76 76 NNE 9 15 30.33 1027 10 16 0.00 0.00
2:59 pm 14:59 Mostly Cloudy 42 5.6 34 1.1 73 73 NNE 8 13 30.30 1026 10 16 0.00 0.00
3:06 pm 15:06 Mostly Cloudy 42 5.6 34 1.1 73 73 N 7 11 30.31 1026 10 16 0.00 0.00
3:59 pm 15:59 Mostly Cloudy 41 5 34 1.1 76 76 NNE 7 11 30.31 1026 10 16 0.00 0.00
4:59 pm 16:59 Mostly Cloudy 41 5 35 1.7 79 79 NNE 6 9 30.30 1026 10 16 0.00 0.00
5:59 pm 17:59 Cloudy 41 5 35 1.7 79 79 NNE 6 9 30.30 1026 10 16 0.00 0.00
6:59 pm 18:59 Mostly Cloudy 40 4.4 35 1.7 83 83 NNE 3 6 30.29 1026 10 16 0.00 0.00
7:11 pm 19:11 Partly Cloudy 39 3.9 35 1.7 86 86 NNE 5 7 30.29 1026 10 16 0.00 0.00
7:59 pm 19:59 Mostly Clear 40 4.4 35 1.7 83 83 NNE 3 6 30.29 1026 10 16 0.00 0.00
8:59 pm 20:59 Mostly Cloudy 39 3.9 35 1.7 86 86 NNW 5 7 30.28 1025 10 16 0.00 0.00
9:59 pm 21:59 Mostly Cloudy 39 3.9 34 1.1 82 82 NNW 9 15 30.28 1025 10 16 0.00 0.00
10:59 pm 22:59 Mostly Cloudy 40 4.4 33 0.6 77 77 NNW 10 17 30.27 1025 10 16 0.00 0.00
11:59 pm 23:59 Mostly Cloudy 39 3.9 33 0.6 79 79 NNW 7 11 30.24 1024 10 16 0.00 0.00

Powered by AerisWeather